Location: ????????
(55.6189°N, 38.3031°E)
Time: 02:07:27
(UTC+00:00)

SL-16 R/B - Pass Details

Date: 15 November 2019
Orbit: 842 x 846 km, 71.0° (Epoch: 15 December)

Event Time Altitude Azimuth Distance (km) Brightness Sun altitude
Exits shadow 03:37:15 12° 311° (NW) 2,318 3.9 -11.5°
Maximum altitude 03:41:43 32° 253° (WSW) 1,423 3.0 -10.9°
Drops below altitude 10° 03:46:39 10° 192° (SSW) 2,465 4.7 -10.3°
Sets 03:49:19 0° 182° (S) 3,396 5.6 -9.9°
